Memphis, TN

12:01 AM CDT on April 29, 2017 (GMT -0500)
Memphis International

Weather History for KMEM - June, 2013

Change the Weather History Date:

Thursday, June 13, 2013

  Actual Average Record
Temperature  
Mean Temperature 85 °F 79 °F  
Max Temperature 94 °F 89 °F 100 °F (1953)
Min Temperature 75 °F 70 °F 54 °F (1903)
Degree Days  
Heating Degree Days 0 0  
Month to date heating degree days 0 0  
Since 1 June heating degree days 0 0  
Since 1 July heating degree days 2933 2964  
Cooling Degree Days 20 14  
Month to date cooling degree days 174 167  
Year to date cooling degree days 459 488  
Since 1 June cooling degree days 174 167  
Growing Degree Days 36 (Base 50)    
Moisture  
Dew Point 69 °F    
Average Humidity 59    
Maximum Humidity 79    
Minimum Humidity 39    
Precipitation  
Precipitation T in 0.12 in 3.98 in (1889)
Month to date precipitation 1.29 1.69  
Year to date precipitation 35.87 25.97  
Snow  
Snow 0.00 in 0.00 in - ()
Month to date snowfall 0.0 0.0  
Since 1 June snowfall 0.0 0.0  
Since 1 July snowfall 0.9 3.8  
Snow Depth 0.00 in    
Sea Level Pressure  
Sea Level Pressure 29.92 in    
Wind  
Wind Speed 12 mph (WNW)    
Max Wind Speed 22 mph    
Max Gust Speed 25 mph    
Visibility 10 miles    
Events Rain    
T = Trace of Precipitation, MM = Missing Value Source: NWS Daily Summary

Daily Weather History Graph

Daily Weather History Graph

Search for Another Location

Airport or City:

Trip Planner

Search our weather history database for the weather conditions in past years. The results will help you decide how hot, cold, wet, or windy it might be!

Date:

Astronomy

Jun. 13, 2013 Rise Set
Actual Time 5:45 AM CDT 8:14 PM CDT
Civil Twilight 5:15 AM CDT 8:44 PM CDT
Nautical Twilight 4:38 AM CDT 9:21 PM CDT
Astronomical Twilight 3:58 AM CDT 10:01 PM CDT
Moon 10:13 AM CDT (6/13) 11:31 PM CDT (6/13)
Length of Visible Light 15h 29m
Length of Day
14h 29m
Waxing Crescent, 22% of the Moon is Illuminated
Jun 13
Waxing Crescent
Jun 16
First Quarter
Jun 23
Full
Jun 29
Last Quarter
Jul 8
New

Hourly Weather History & Observations

Time (CDT) Temp. Heat Index Dew Point Humidity Pressure Visibility Wind Dir Wind Speed Gust Speed Precip Events Conditions
12:54 AM 82.9 °F 87.5 °F 71.1 °F 67% 29.93 in 10.0 mi SSW 13.8 mph 24.2 mph N/A   Clear
1:54 AM 82.0 °F 86.3 °F 71.1 °F 69% 29.93 in 10.0 mi SW 10.4 mph - N/A   Clear
2:54 AM 81.0 °F 84.9 °F 71.1 °F 72% 29.93 in 10.0 mi WSW 8.1 mph - N/A   Clear
3:54 AM 80.1 °F 83.6 °F 71.1 °F 74% 29.92 in 10.0 mi SW 10.4 mph - N/A   Clear
4:54 AM 79.0 °F - 71.1 °F 77% 29.92 in 10.0 mi SW 9.2 mph - N/A   Partly Cloudy
5:54 AM 79.0 °F - 71.1 °F 77% 29.93 in 10.0 mi WSW 9.2 mph - N/A   Scattered Clouds
6:54 AM 80.1 °F 83.6 °F 71.1 °F 74% 29.94 in 9.0 mi WSW 8.1 mph - N/A   Mostly Cloudy
7:54 AM 82.0 °F 86.3 °F 71.1 °F 69% 29.94 in 10.0 mi SW 10.4 mph 18.4 mph N/A   Mostly Cloudy
8:54 AM 84.9 °F 91.4 °F 73.0 °F 67% 29.95 in 10.0 mi West 10.4 mph - N/A   Scattered Clouds
9:54 AM 88.0 °F 95.6 °F 73.0 °F 61% 29.94 in 10.0 mi WSW 9.2 mph - N/A   Partly Cloudy
10:54 AM 90.0 °F 97.9 °F 73.0 °F 57% 29.92 in 10.0 mi West 13.8 mph 21.9 mph N/A   Scattered Clouds
11:54 AM 91.9 °F 99.5 °F 72.0 °F 52% 29.91 in 10.0 mi West 18.4 mph 23.0 mph N/A   Scattered Clouds
12:54 PM 91.9 °F 100.7 °F 73.0 °F 54% 29.90 in 10.0 mi WNW 15.0 mph 24.2 mph N/A   Mostly Cloudy
1:54 PM 93.0 °F 100.7 °F 72.0 °F 50% 29.89 in 10.0 mi West 16.1 mph 23.0 mph N/A   Scattered Clouds
2:54 PM 93.0 °F 97.9 °F 69.1 °F 45% 29.88 in 10.0 mi NW 12.7 mph 20.7 mph N/A   Partly Cloudy
3:54 PM 93.0 °F 95.0 °F 64.9 °F 39% 29.88 in 10.0 mi NNW 13.8 mph 24.2 mph N/A   Scattered Clouds
4:54 PM 91.0 °F 92.6 °F 64.0 °F 41% 29.88 in 10.0 mi North 12.7 mph 20.7 mph N/A   Scattered Clouds
5:54 PM 89.1 °F 91.3 °F 66.0 °F 46% 29.88 in 10.0 mi North 13.8 mph 21.9 mph N/A   Scattered Clouds
6:54 PM 86.0 °F 87.3 °F 64.0 °F 48% 29.89 in 10.0 mi NNE 13.8 mph - N/A   Scattered Clouds
7:54 PM 84.0 °F 85.4 °F 64.0 °F 51% 29.92 in 10.0 mi NNE 13.8 mph - N/A   Scattered Clouds
8:54 PM 81.0 °F 82.5 °F 64.0 °F 56% 29.93 in 10.0 mi NNE 12.7 mph - N/A   Partly Cloudy
9:54 PM 80.1 °F 81.5 °F 63.0 °F 56% 29.95 in 10.0 mi NE 13.8 mph - N/A   Partly Cloudy
10:54 PM 78.1 °F - 63.0 °F 60% 29.95 in 10.0 mi NE 8.1 mph - 0.00 in Rain Light Rain
11:54 PM 75.9 °F - 63.0 °F 64% 29.96 in 10.0 mi North 6.9 mph - 0.00 in   Partly Cloudy